Regional Weather Roundup
Issued by NWS

Home | Current Version | Previous Version | Graphics & Text | Print | Product List | Glossary On
Versions: 1 2 3 4 5 6 7 8 9 10 11 12 13 14 15 16 17 18 19 20 21 22 23 24 25 26 27 28 29 30 31 32 33 34 35 36 37 38 39 40 41 42 43 44 45 46 47 48 49 50
091
ASUS43 KBIS 240110
RWRND

NORTH DAKOTA REGIONAL WEATHER ROUNDUP
NATIONAL WEATHER SERVICE BISMARCK ND
800 PM CDT SAT JUL 23 2016

NOTE: "FAIR" INDICATES FEW OR NO CLOUDS BELOW 12,000 FEET WITH NO
SIGNIFICANT WEATHER AND/OR OBSTRUCTIONS TO VISIBILITY.


NDZ001>003-009>011-017-240200-
NORTHWEST NORTH DAKOTA

CITY           SKY/WX    TMP DP  RH WIND       PRES   REMARKS
WILLISTON      CLOUDY    75  54  47 NW18      29.89R
MINOT          SUNNY     80  55  42 W24       29.79R
MINOT AFB      MOSUNNY   76  58  54 NW14G25   29.77R
$$

NDZ018>021-031>035-040>046-240200-
SOUTHWEST NORTH DAKOTA

CITY           SKY/WX    TMP DP  RH WIND       PRES   REMARKS
BISMARCK       SUNNY     82  54  37 NW8       29.82R
DICKINSON      SUNNY     77  47  34 NW17G23   29.89R
GARRISON         N/A     77  56  48 NW16G25   29.81R
HETTINGER ARPT SUNNY     83  43  24 NW17      29.92R
$$

NDZ004>008-012>016-024-026-027-054-240200-
NORTHEAST NORTH DAKOTA

CITY           SKY/WX    TMP DP  RH WIND       PRES   REMARKS
GRAND FORKS    CLOUDY    71  68  90 W6        29.70F
GRND FRKS AFB  CLOUDY    70  68  95 W3        29.71F
DEVILS LAKE    MOSUNNY   76  69  79 SW8       29.75S
$$

NDZ022-023-025-028>030-036>039-047>053-240200-
SOUTHEAST NORTH DAKOTA

CITY           SKY/WX    TMP DP  RH WIND       PRES   REMARKS
FARGO          LGT RAIN  73  70  90 N8G21     29.70R FOG
JAMESTOWN      PTSUNNY   77  69  76 NW8       29.77R
$$





USA.gov is the U.S. government's official web portal to all federal, state and local government web resources and services.